DW5081 Weather Reports


time (UTC)temp
C
wind
direction
speed
KPH
gust
KPH
rain 1hr
cm
rain 24hr
cm
rain mn
cm
humidity
%
barometer
mb
20260505224035 14 355 3.2 9.7 0.00 0.00 0.00 84 1017.5
20260505223534 14 266 3.2 9.7 0.00 0.00 0.00 84 1017.5
20260505223036 14 304 3.2 9.7 0.00 0.00 0.00 84 1017.7
20260505222535 14 315 3.2 11.3 0.00 0.00 0.00 84 1017.7
20260505222034 14 321 3.2 11.3 0.00 0.00 0.00 83 1017.8
20260505221534 14 325 3.2 9.7 0.00 0.00 0.00 84 1017.8
20260505221034 14 336 3.2 9.7 0.00 0.00 0.00 84 1017.7
20260505220538 14 0 4.8 11.3 0.00 0.00 0.00 83 1017.8
20260505220035 14 23 4.8 11.3 0.00 0.00 0.00 83 1017.8
20260505215530 15 307 3.2 9.7 0.00 0.00 0.00 83 1017.9
20260505215027 15 341 4.8 9.7 0.00 0.00 0.00 83 1017.7
20260505214517 15 313 4.8 11.3 0.00 0.00 0.00 83 1017.8
20260505214242 15 283 4.8 12.9 0.00 0.00 0.00 83 1017.8
20260505213506 15 264 4.8 12.9 0.00 0.00 0.00 83 1017.9
20260505212955 15 330 4.8 11.3 0.00 0.00 0.00 83 1017.8
20260505212450 15 290 6.4 9.7 0.00 0.00 0.00 82 1017.6
20260505211944 15 331 4.8 11.3 0.00 0.00 0.00 82 1017.8
20260505211935 15 257 4.8 11.3 0.00 0.00 0.00 81 1017.6
20260505210927 15 281 4.8 9.7 0.00 0.00 0.00 81 1017.7
20260505210653 15 263 4.8 11.3 0.00 0.00 0.00 80 1017.5
20260505205911 15 355 4.8 11.3 0.00 0.00 0.00 80 1017.5
20260505205406 15 314 4.8 11.3 0.00 0.00 0.00 80 1017.6
20260505204900 16 349 3.2 9.7 0.00 0.00 0.00 81 1017.5
20260505204619 16 347 3.2 11.3 0.00 0.00 0.00 80 1017.5
20260505203841 16 349 3.2 11.3 0.00 0.00 0.00 80 1017.4
20260505203335 16 306 1.6 9.7 0.00 0.00 0.00 80 1017.6
20260505202826 16 333 3.2 9.7 0.00 0.00 0.00 79 1017.7
20260505202550 16 333 4.8 11.3 0.00 0.00 0.00 79 1017.6
20260505201813 16 255 4.8 11.3 0.00 0.00 0.00 79 1017.7
20260505201535 16 349 4.8 9.7 0.00 0.00 0.00 80 1017.6
20260505200757 16 307 4.8 9.7 0.00 0.00 0.00 79 1017.6
20260505200252 16 340 3.2 9.7 0.00 0.00 0.00 79 1017.6
20260505195741 16 304 3.2 9.7 0.00 0.00 0.00 78 1017.6
20260505195235 16 292 4.8 12.9 0.00 0.00 0.00 77 1017.6
20260505194729 16 302 4.8 12.9 0.00 0.00 0.00 77 1017.7
20260505194220 16 294 3.2 9.7 0.00 0.00 0.00 77 1017.6
20260505193944 17 316 1.6 3.2 0.00 0.00 0.00 77 1017.5
20260505193208 17 5 3.2 11.3 0.00 0.00 0.00 76 1017.6
20260505192658 17 24 3.2 11.3 0.00 0.00 0.00 75 1017.5
20260505192151 17 186 1.6 8.0 0.00 0.00 0.00 78 1017.6
20260505192018 17 39 1.6 8.0 0.00 0.00 0.00 77 1017.5
20260505191935 17 142 1.6 8.0 0.00 0.00 0.00 78 1017.5
20260505190901 16 178 3.2 9.7 0.00 0.00 0.00 79 1017.3
20260505190123 16 333 1.6 9.7 0.00 0.00 0.00 80 1017.2
20260505185613 16 327 1.6 8.0 0.00 0.00 0.00 83 1017.4
20260505185108 16 0 3.2 9.7 0.00 0.00 0.00 83 1017.3
20260505184601 15 165 3.2 9.7 0.00 0.00 0.00 84 1017.2
20260505184051 15 163 3.2 8.0 0.00 0.00 0.00 85 1017.4
20260505183545 14 134 3.2 8.0 0.00 0.00 0.00 85 1017.3
20260505183040 14 65 1.6 8.0 0.00 0.00 0.00 84 1017.2
20260505182801 14 142 3.2 6.4 0.00 0.00 0.00 84 1017.2
20260505182023 14 148 3.2 6.4 0.00 0.00 0.00 84 1017.2
20260505181518 14 348 1.6 6.4 0.00 0.00 0.00 84 1017.1
20260505181232 14 319 1.6 6.4 0.00 0.00 0.00 85 1016.9
20260505181107 15 321 1.6 6.4 0.00 0.00 0.00 85 1017.1
20260505175952 14 304 3.2 8.0 0.00 0.00 0.00 84 1017.2
20260505175443 14 323 1.6 9.7 0.00 0.00 0.00 85 1017.0
20260505174938 14 338 0.0 9.7 0.00 0.00 0.00 85 1017.0
20260505174431 14 317 1.6 4.8 0.00 0.00 0.00 85 1016.8
20260505173921 14 336 1.6 6.4 0.00 0.00 0.00 84 1016.8
20260505173415 14 340 1.6 6.4 0.00 0.00 0.00 84 1016.8
20260505172908 14 355 3.2 6.4 0.00 0.00 0.00 84 1016.8
20260505172408 14 348 1.6 6.4 0.00 0.00 0.00 84 1016.8
20260505171907 14 15 1.6 6.4 0.00 0.00 0.00 83 1016.8
20260505171416 13 140 1.6 6.4 0.00 0.00 0.00 82 1016.7
20260505171141 13 146 1.6 6.4 0.00 0.00 0.00 82 1016.7
20260505170407 13 146 3.2 8.0 0.00 0.00 0.00 81 1016.7
20260505165909 13 146 1.6 8.0 0.00 0.00 0.00 81 1016.8
20260505165405 14 338 1.6 3.2 0.00 0.00 0.00 82 1016.9
20260505164905 13 157 0.0 3.2 0.00 0.00 0.00 82 1016.8
20260505164405 13 157 0.0 3.2 0.00 0.00 0.00 83 1016.9
20260505163902 13 160 1.6 3.2 0.00 0.00 0.00 82 1016.8
20260505163632 13 160 1.6 3.2 0.00 0.00 0.00 83 1016.7
20260505162906 13 171 1.6 3.2 0.00 0.00 0.00 82 1016.8
20260505162859 13 161 1.6 3.2 0.00 0.00 0.00 83 1016.6
20260505161859 13 171 1.6 6.4 0.00 0.00 0.00 82 1016.8
20260505161359 13 171 1.6 6.4 0.00 0.00 0.00 82 1016.8
20260505160849 13 173 0.0 3.2 0.00 0.00 0.00 83 1016.9
20260505160343 13 172 1.6 3.2 0.00 0.00 0.00 83 1016.8
20260505153321 12 141 1.6 3.2 0.00 0.00 0.00 85 1016.8
20260505152820 12 123 1.6 3.2 0.00 0.00 0.00 85 1016.8
20260505152319 12 109 1.6 3.2 0.00 0.00 0.00 86 1016.9
20260505151819 12 97 0.0 3.2 0.00 0.00 0.00 87 1016.8
20260505151320 12 146 0.0 3.2 0.00 0.00 0.00 88 1016.8
20260505151052 12 130 0.0 0.0 0.00 0.00 0.00 88 1016.8
20260505150321 12 136 0.0 1.6 0.00 0.00 0.00 89 1016.8
20260505140311 12 156 0.0 1.6 0.00 0.00 0.00 90 1016.3
20260505130229 11 156 0.0 3.2 0.00 0.00 0.00 90 1015.9
20260505124705 11 155 0.0 0.0 0.00 0.00 0.00 90 1016.0
20260505124202 11 155 0.0 0.0 0.00 0.00 0.00 90 1016.0
20260505124154 11 155 0.0 0.0 0.00 0.00 0.00 90 1016.1
20260505123143 11 155 0.0 0.0 0.00 0.00 0.00 90 1016.0
20260505122636 11 155 0.0 0.0 0.00 0.00 0.00 90 1015.9
20260505122131 11 155 0.0 0.0 0.00 0.00 0.00 90 1015.9
20260505121851 11 155 0.0 0.0 0.00 0.00 0.00 90 1015.7
20260505121346 11 155 0.0 1.6 0.00 0.00 0.00 90 1015.9
20260505120609 11 155 0.0 1.6 0.00 0.00 0.00 90 1015.8
20260505120601 11 155 1.6 1.6 0.00 0.00 0.00 90 1015.7
20260505115552 11 155 0.0 1.6 0.00 0.00 0.00 90 1015.9
20260505115046 11 155 0.0 0.0 0.00 0.00 0.00 90 1015.6
20260505114537 11 155 0.0 0.0 0.00 0.00 0.00 90 1015.7
20260505114030 11 155 0.0 1.6 0.00 0.00 0.00 90 1015.6
20260505113525 11 155 0.0 1.6 0.00 0.00 0.00 90 1015.6
20260505113245 11 155 0.0 1.6 0.00 0.00 0.00 90 1015.6
20260505112508 11 155 0.0 1.6 0.00 0.00 0.00 90 1015.6
20260505112004 11 155 0.0 3.2 0.00 0.00 0.00 90 1015.5
20260505111726 11 155 0.0 3.2 0.00 0.00 0.00 90 1015.5
20260505110946 11 156 0.0 3.2 0.00 0.00 0.00 89 1015.5
20260505110440 11 156 0.0 0.0 0.00 0.00 0.00 90 1015.5
20260505101928 12 154 0.0 3.2 0.00 0.00 0.00 89 1015.5
20260505101431 12 154 1.6 6.4 0.00 0.00 0.00 89 1015.4
20260505100925 12 154 1.6 6.4 0.00 0.00 0.00 89 1015.3
20260505100426 12 160 1.6 6.4 0.00 0.00 0.00 89 1015.4
20260505100157 12 142 3.2 9.7 0.00 0.00 0.00 89 1015.6
20260505095424 12 155 3.2 9.7 0.00 0.00 0.00 89 1015.5
20260505094920 12 144 1.6 6.4 0.00 0.00 0.00 89 1015.6
20260505094420 12 144 3.2 8.0 0.00 0.00 0.00 89 1015.5
20260505093914 12 140 1.6 8.0 0.00 0.00 0.00 88 1015.5
20260505093408 12 150 1.6 6.4 0.00 0.00 0.00 88 1015.4
20260505092907 12 148 1.6 3.2 0.00 0.00 0.00 88 1015.6
20260505092405 12 145 1.6 6.4 0.00 0.00 0.00 88 1015.5
20260505091910 12 145 1.6 6.4 0.00 0.00 0.00 88 1015.6
20260505091405 12 145 0.0 4.8 0.00 0.00 0.00 88 1015.8
20260505091137 12 146 0.0 1.6 0.00 0.00 0.00 87 1015.8
20260505090405 12 146 0.0 1.6 0.00 0.00 0.00 87 1015.8
20260505085903 12 146 0.0 1.6 0.00 0.00 0.00 87 1015.7
20260505085402 12 146 0.0 1.6 0.00 0.00 0.00 87 1015.9
20260505084900 12 146 0.0 1.6 0.00 0.00 0.00 87 1015.8
20260505084402 12 146 0.0 3.2 0.00 0.00 0.00 87 1015.8
20260505084358 12 146 0.0 3.2 0.00 0.00 0.00 87 1015.7
20260505083357 12 146 0.0 1.6 0.00 0.00 0.00 87 1015.9
20260505082857 12 146 0.0 1.6 0.00 0.00 0.00 87 1015.9
20260505082356 12 146 0.0 1.6 0.00 0.00 0.00 87 1015.9
20260505081858 12 146 0.0 1.6 0.00 0.00 0.00 87 1015.7
20260505081355 12 146 0.0 1.6 0.00 0.00 0.00 87 1015.8
20260505080854 12 146 0.0 0.0 0.00 0.00 0.00 87 1015.9
20260505080356 12 146 0.0 1.6 0.00 0.00 0.00 87 1015.9
20260505075856 12 146 0.0 1.6 0.00 0.00 0.00 87 1016.0
20260505075355 12 146 0.0 6.4 0.00 0.00 0.00 87 1016.0
20260505074856 12 146 1.6 6.4 0.00 0.00 0.00 87 1015.9
20260505074625 12 146 1.6 4.8 0.00 0.00 0.00 87 1015.9
20260505074128 12 146 1.6 6.4 0.00 0.00 0.00 87 1016.1
20260505073354 12 145 0.0 6.4 0.00 0.00 0.00 87 1016.2
20260505072855 12 146 0.0 1.6 0.00 0.00 0.00 86 1016.0
20260505072355 12 146 0.0 1.6 0.00 0.00 0.00 87 1016.2
20260505071859 12 146 0.0 1.6 0.00 0.00 0.00 87 1015.9
20260505071623 12 146 1.6 6.4 0.00 0.00 0.00 87 1016.1
20260505071125 12 146 1.6 6.4 0.00 0.00 0.00 87 1016.1
20260505070628 12 145 1.6 6.4 0.00 0.00 0.00 87 1016.2
20260505065850 12 146 0.0 3.2 0.00 0.00 0.00 87 1015.9
20260505065612 12 146 0.0 3.2 0.00 0.00 0.00 87 1016.1
20260505064834 12 146 1.6 6.4 0.00 0.00 0.00 87 1015.9
20260505064328 12 146 3.2 8.0 0.00 0.00 0.00 87 1015.9
20260505063818 12 139 1.6 8.0 0.00 0.00 0.00 87 1016.1
20260505063313 12 165 1.6 6.4 0.00 0.00 0.00 87 1016.0
20260505062807 12 165 1.6 6.4 0.00 0.00 0.00 87 1015.7
20260505062257 12 165 1.6 6.4 0.00 0.00 0.00 87 1016.1
20260505061751 12 168 1.6 6.4 0.00 0.00 0.00 88 1016.0
20260505061245 12 154 0.0 6.4 0.00 0.00 0.00 88 1016.0
20260505060735 12 155 0.0 0.0 0.00 0.00 0.00 88 1016.0
20260505060229 12 156 0.0 3.2 0.00 0.00 0.00 88 1016.0
20260505055722 12 156 1.6 6.4 0.00 0.00 0.00 88 1016.2
20260505055213 12 157 0.0 4.8 0.00 0.00 0.00 88 1016.2
20260505054937 12 163 0.0 3.2 0.00 0.00 0.00 88 1016.1
20260505054201 12 163 0.0 3.2 0.00 0.00 0.00 88 1016.1
20260505053651 12 163 0.0 1.6 0.00 0.00 0.00 88 1016.3
20260505053145 12 163 1.6 6.4 0.00 0.00 0.00 88 1016.2
20260505052638 12 163 1.6 6.4 0.00 0.00 0.00 88 1016.2
20260505052129 12 140 1.6 8.0 0.00 0.00 0.00 88 1016.0
20260505051623 12 138 3.2 8.0 0.00 0.00 0.00 88 1016.0
20260505051116 12 148 1.6 8.0 0.00 0.00 0.00 88 1015.9
20260505050606 12 136 1.6 6.4 0.00 0.00 0.00 88 1015.9
20260505041538 12 147 1.6 8.0 0.00 0.00 0.00 88 1015.9
20260505041040 12 144 1.6 6.4 0.00 0.00 0.00 87 1015.9
20260505040538 12 155 1.6 6.4 0.00 0.00 0.00 87 1015.8
20260505040035 12 161 1.6 6.4 0.00 0.00 0.00 87 1015.7
20260505035535 12 161 1.6 6.4 0.00 0.00 0.00 87 1015.8
20260505035036 12 165 0.0 6.4 0.00 0.00 0.00 87 1015.6
20260505034535 12 166 0.0 3.2 0.00 0.00 0.00 87 1015.7
20260505034033 12 166 0.0 3.2 0.00 0.00 0.00 87 1015.7
20260505033806 12 168 0.0 1.6 0.00 0.00 0.00 87 1015.7
20260505033030 12 168 0.0 3.2 0.00 0.00 0.00 86 1015.5
20260505033024 12 168 0.0 3.2 0.00 0.00 0.00 86 1015.6
20260505032012 12 168 0.0 3.2 0.00 0.00 0.00 86 1015.4
20260505031509 12 168 0.0 3.2 0.00 0.00 0.00 86 1015.5
20260505030959 12 167 0.0 3.2 0.00 0.00 0.00 86 1015.3
20260505030450 12 167 0.0 3.2 0.00 0.00 0.00 86 1015.1
20260505025950 12 167 0.0 3.2 0.00 0.00 0.00 87 1015.1
20260505025447 13 167 1.6 3.2 0.00 0.00 0.00 87 1015.0
20260505025219 13 167 1.6 3.2 0.00 0.00 0.00 87 1015.1
20260505024447 13 167 0.0 3.2 0.00 0.00 0.00 87 1015.1
20260505023947 13 167 0.0 3.2 0.00 0.00 0.00 87 1015.1
20260505023444 13 167 1.6 3.2 0.00 0.00 0.00 87 1015.1
20260505023213 13 167 1.6 6.4 0.00 0.00 0.00 87 1015.0
20260505022442 13 167 1.6 6.4 0.00 0.00 0.00 87 1015.0
20260505021942 13 169 1.6 6.4 0.00 0.00 0.00 87 1015.0
20260505021439 13 170 1.6 6.4 0.00 0.00 0.00 87 1015.0
20260505020939 13 144 1.6 9.7 0.00 0.00 0.00 87 1015.1
20260505020441 13 144 3.2 9.7 0.00 0.00 0.00 86 1015.0
20260505020212 13 148 3.2 8.0 0.00 0.00 0.00 87 1015.1
20260505015440 13 148 3.2 9.7 0.00 0.00 0.00 86 1015.2
20260505015214 13 151 3.2 9.7 0.00 0.00 0.00 86 1015.1
20260505014442 13 139 3.2 8.0 0.00 0.00 0.00 86 1015.1
20260505013943 13 142 1.6 8.0 0.00 0.00 0.00 86 1015.1
20260505013442 13 159 1.6 8.0 0.00 0.00 0.00 86 1015.1
20260505012942 13 171 1.6 6.4 0.00 0.00 0.00 86 1015.1
20260505012442 13 175 3.2 9.7 0.00 0.00 0.00 86 1015.4
20260505011941 13 134 3.2 9.7 0.00 0.00 0.00 86 1015.1
20260505011440 13 136 3.2 8.0 0.00 0.00 0.00 86 1015.4
20260505011210 13 142 4.8 8.0 0.00 0.00 0.00 86 1015.4
20260505011103 13 148 3.2 8.0 0.00 0.00 0.00 86 1015.5
20260505010210 13 138 1.6 8.0 0.00 0.00 0.00 86 1015.3
20260505005439 13 146 1.6 8.0 0.00 0.00 0.00 86 1015.4
20260505005209 13 121 3.2 11.3 0.00 0.00 0.00 86 1015.5
20260505004438 13 149 3.2 11.3 0.00 0.00 0.00 86 1015.5
20260505003932 13 154 3.2 6.4 0.00 0.00 0.00 86 1015.4
20260505003429 13 153 4.8 8.0 0.00 0.00 0.00 86 1015.5
20260505002928 13 136 3.2 9.7 0.00 0.00 0.00 85 1015.6
20260505002428 13 140 3.2 9.7 0.00 0.00 0.00 85 1015.5
20260505001927 13 136 3.2 9.7 0.00 0.00 0.00 85 1015.6
20260505001426 13 132 3.2 9.7 0.00 0.00 0.00 86 1015.8
20260505000930 13 144 3.2 9.7 0.00 0.00 0.00 85 1015.7
20260505000659 13 132 3.2 9.7 0.00 0.00 0.00 86 1015.8
20260504235925 13 149 4.8 11.3 0.00 0.00 0.00 85 1015.7
20260504235423 13 158 3.2 11.3 0.00 0.00 0.00 85 1015.9
20260504234922 13 148 3.2 9.7 0.00 0.00 0.00 85 1015.9
20260504234420 13 135 3.2 11.3 0.00 0.00 0.00 85 1015.8
20260504233920 13 152 4.8 11.3 0.00 0.00 0.00 85 1015.8
20260504233419 13 142 3.2 8.0 0.00 0.00 0.00 85 1015.9
20260504232916 13 139 3.2 8.0 0.00 0.00 0.00 85 1016.0
20260504232650 14 157 3.2 9.7 0.00 0.00 0.00 85 1015.9
20260504231914 14 184 1.6 9.7 0.00 0.00 0.00 85 1015.9
20260504231403 14 194 3.2 8.0 0.00 0.00 0.00 85 1016.0
20260504230858 14 142 1.6 8.0 0.00 0.00 0.00 85 1015.9
20260504230352 14 167 1.6 6.4 0.00 0.00 0.00 85 1016.0
20260504225841 14 184 3.2 11.3 0.00 0.00 0.00 85 1016.2
20260504225336 14 188 3.2 11.3 0.00 0.00 0.00 85 1016.2
20260504224829 14 336 1.6 9.7 0.00 0.00 0.00 86 1016.2